StationID,Date,MaxTemp,MinTemp,Precipitation,Snowfall,SnowDepth
"USW00025381","2012-07-27",57.74,54.14,39.00,,
"USW00025381","2012-07-28",61.88,53.78,0.00,,
"USW00025381","2012-07-29",55.76,52.88,277.00,,
"USW00025381","2012-07-30",56.84,52.88,47.00,,
"USW00025381","2012-07-31",54.32,52.16,473.00,,
"USW00025381","2012-08-01",59.72,52.34,41.00,,
"USW00025381","2012-08-02",56.12,53.42,0.00,,
"USW00025381","2012-08-03",55.58,51.98,95.00,,
"USW00025381","2012-08-04",61.70,51.98,10.00,,
"USW00025381","2012-08-05",58.64,52.16,0.00,,
"USW00025381","2012-08-06",68.90,53.96,0.00,,
"USW00025381","2012-08-07",63.50,56.84,0.00,,
"USW00025381","2012-08-08",57.92,52.34,177.00,,
"USW00025381","2012-08-09",57.02,52.16,39.00,,
"USW00025381","2012-08-10",59.72,52.70,11.00,,
"USW00025381","2012-08-11",63.68,54.32,0.00,,
"USW00025381","2012-08-12",60.08,53.06,0.00,,
"USW00025381","2012-08-13",56.48,52.52,226.00,,
"USW00025381","2012-08-14",72.50,52.88,0.00,,
"USW00025381","2012-08-15",72.86,50.54,0.00,,
"USW00025381","2012-08-16",72.86,51.44,0.00,,
"USW00025381","2012-08-17",70.16,52.88,0.00,,
"USW00025381","2012-08-18",71.24,51.26,0.00,,
"USW00025381","2012-08-19",62.06,54.50,0.00,,
"USW00025381","2012-08-20",60.08,52.88,0.00,,
"USW00025381","2012-08-21",58.82,51.80,0.00,,
"USW00025381","2012-08-22",59.00,50.18,11.00,,
"USW00025381","2012-08-23",62.06,48.02,0.00,,
"USW00025381","2012-08-24",58.64,48.02,0.00,,
"USW00025381","2012-08-25",63.14,49.10,0.00,,
"USW00025381","2012-08-26",70.70,55.04,0.00,,
"USW00025381","2012-08-27",60.08,52.70,61.00,,
"USW00025381","2012-08-28",55.04,52.16,303.00,,
"USW00025381","2012-08-29",61.16,49.28,31.00,,
"USW00025381","2012-08-30",58.82,45.14,0.00,,
"USW00025381","2012-08-31",58.28,43.70,0.00,,
"USW00025381","2012-09-01",58.10,42.44,228.00,,
"USW00025381","2012-09-02",60.26,51.26,56.00,,
"USW00025381","2012-09-03",55.04,52.88,86.00,,
"USW00025381","2012-09-04",63.14,47.48,78.00,,
"USW00025381","2012-09-05",62.24,45.32,0.00,,
"USW00025381","2012-09-06",63.14,52.88,0.00,,
"USW00025381","2012-09-07",65.12,48.20,0.00,,
"USW00025381","2012-09-08",62.42,47.84,200.00,,
"USW00025381","2012-09-09",56.12,48.92,103.00,,
"USW00025381","2012-09-10",57.02,46.04,54.00,,
"USW00025381","2012-09-11",52.34,48.92,193.00,,
"USW00025381","2012-09-12",53.78,50.90,696.00,,
"USW00025381","2012-09-13",54.86,51.44,112.00,,
"USW00025381","2012-09-14",58.28,43.70,0.00,,
"USW00025381","2012-09-15",59.00,43.52,0.00,,
"USW00025381","2012-09-16",60.98,39.74,0.00,,
"USW00025381","2012-09-17",52.16,39.20,53.00,,
"USW00025381","2012-09-18",58.10,50.00,0.00,,
"USW00025381","2012-09-19",64.76,47.66,0.00,,
"USW00025381","2012-09-20",70.16,51.98,0.00,,
"USW00025381","2012-09-21",56.48,44.42,0.00,,
"USW00025381","2012-09-22",61.70,51.62,27.00,,
"USW00025381","2012-09-23",53.78,51.44,233.00,,
"USW00025381","2012-09-24",57.38,41.00,0.00,,
"USW00025381","2012-09-25",53.78,39.02,76.00,,
"USW00025381","2012-09-26",55.22,48.74,313.00,,
"USW00025381","2012-09-27",55.04,48.38,211.00,,
"USW00025381","2012-09-28",52.52,47.66,59.00,,
"USW00025381","2012-09-29",52.52,47.48,83.00,,
"USW00025381","2012-09-30",53.24,47.66,233.00,,
"USW00025381","2012-10-01",54.86,46.58,45.00,,
"USW00025381","2012-10-02",51.80,39.74,0.00,,
"USW00025381","2012-10-03",50.36,39.56,0.00,,
"USW00025381","2012-10-04",54.50,36.14,0.00,,
"USW00025381","2012-10-05",62.42,50.00,0.00,,
"USW00025381","2012-10-06",64.58,48.74,0.00,,
"USW00025381","2012-10-07",65.12,51.80,0.00,,
"USW00025381","2012-10-08",59.72,48.92,0.00,,
"USW00025381","2012-10-09",50.18,39.74,0.00,,
"USW00025381","2012-10-10",52.34,45.50,0.00,,
"USW00025381","2012-10-11",50.18,47.30,129.00,,
"USW00025381","2012-10-12",53.24,48.20,338.00,,
"USW00025381","2012-10-13",55.76,48.38,37.00,,
"USW00025381","2012-10-14",52.34,48.38,146.00,,
"USW00025381","2012-10-15",50.36,44.78,236.00,,
"USW00025381","2012-10-16",48.56,39.74,6.00,,
"USW00025381","2012-10-17",45.14,39.02,401.00,,
"USW00025381","2012-10-18",46.76,31.10,0.00,,
"USW00025381","2012-10-19",42.44,29.30,33.00,,
"USW00025381","2012-10-20",44.78,32.72,2.00,,
"USW00025381","2012-10-21",45.86,36.32,0.00,,
"USW00025381","2012-10-22",44.78,37.76,0.00,,
"USW00025381","2012-10-23",45.50,32.72,0.00,,
"USW00025381","2012-10-24",44.06,27.86,0.00,,
"USW00025381","2012-10-25",43.52,26.60,0.00,,
"USW00025381","2012-10-26",40.64,25.16,0.00,,
"USW00025381","2012-10-27",39.56,25.16,0.00,,
"USW00025381","2012-10-28",39.56,29.12,0.00,,
"USW00025381","2012-10-29",37.40,26.42,0.00,,
"USW00025381","2012-10-30",38.66,20.48,0.00,,
"USW00025381","2012-10-31",39.74,19.40,0.00,,
"USW00025381","2012-11-01",50.00,19.40,0.00,,
"USW00025381","2012-11-02",50.18,42.98,252.00,,
"USW00025381","2012-11-03",48.02,42.80,57.00,,
"USW00025381","2012-11-04",51.98,42.80,531.00,,
"USW00025381","2012-11-05",47.30,41.54,73.00,,
"USW00025381","2012-11-06",45.50,38.48,290.00,,
"USW00025381","2012-11-07",43.16,31.46,6.00,,
"USW00025381","2012-11-08",41.36,33.62,0.00,,
"USW00025381","2012-11-09",39.38,23.90,0.00,,
"USW00025381","2012-11-10",40.64,23.18,3.00,,
"USW00025381","2012-11-11",42.08,35.78,196.00,,
"USW00025381","2012-11-12",43.70,39.02,151.00,,
"USW00025381","2012-11-13",44.42,36.50,56.00,,
"USW00025381","2012-11-14",45.14,37.40,78.00,,
"USW00025381","2012-11-15",44.78,36.32,122.00,,
"USW00025381","2012-11-16",44.06,38.66,370.00,,
"USW00025381","2012-11-17",45.14,37.04,92.00,,
"USW00025381","2012-11-18",45.32,39.56,29.00,,
"USW00025381","2012-11-19",44.60,41.00,63.00,,
"USW00025381","2012-11-20",45.32,35.78,11.00,,
"USW00025381","2012-11-21",40.46,33.98,32.00,,
"USW00025381","2012-11-22",45.32,38.48,238.00,,
"USW00025381","2012-11-23",45.32,39.38,74.00,,
"USW00025381","2012-11-24",45.14,37.94,99.00,,
"USW00025381","2012-11-25",44.06,35.06,45.00,,
"USW00025381","2012-11-26",41.18,36.14,3.00,,
"USW00025381","2012-11-27",42.98,33.62,11.00,,
"USW00025381","2012-11-28",43.52,40.28,252.00,,
"USW00025381","2012-11-29",47.12,40.10,34.00,,
"USW00025381","2012-11-30",44.06,37.40,59.00,,
"USW00025381","2012-12-01",37.94,35.06,125.00,,
"USW00025381","2012-12-02",39.38,32.90,201.00,,
"USW00025381","2012-12-03",41.90,35.24,143.00,,
"USW00025381","2012-12-04",38.84,33.62,96.00,,
"USW00025381","2012-12-05",39.92,32.18,47.00,,
"USW00025381","2012-12-06",39.92,31.28,86.00,,
"USW00025381","2012-12-07",34.52,27.14,2.00,,
"USW00025381","2012-12-08",35.24,26.06,33.00,,
"USW00025381","2012-12-09",43.16,33.08,122.00,,
"USW00025381","2012-12-10",44.78,39.74,242.00,,
"USW00025381","2012-12-11",42.08,36.50,8.00,,
"USW00025381","2012-12-12",41.54,30.20,148.00,,
"USW00025381","2012-12-13",43.34,31.28,14.00,,
"USW00025381","2012-12-14",42.08,29.84,305.00,,
"USW00025381","2012-12-15",41.36,30.38,59.00,,
"USW00025381","2012-12-16",34.16,24.80,96.00,,
"USW00025381","2012-12-17",31.82,24.44,118.00,,
"USW00025381","2012-12-18",35.24,26.78,3.00,,
"USW00025381","2012-12-19",38.48,33.80,0.00,,
"USW00025381","2012-12-20",37.94,28.94,0.00,,
"USW00025381","2012-12-21",35.60,30.92,0.00,,
"USW00025381","2012-12-22",34.16,28.94,0.00,,
"USW00025381","2012-12-23",31.82,21.02,0.00,,
"USW00025381","2012-12-24",36.68,26.42,0.00,,
"USW00025381","2012-12-25",37.94,26.24,0.00,,
"USW00025381","2012-12-26",34.52,21.20,0.00,,
"USW00025381","2012-12-27",37.94,32.18,115.00,,
"USW00025381","2012-12-28",38.12,33.98,39.00,,
"USW00025381","2012-12-29",40.46,37.04,0.00,,
"USW00025381","2012-12-30",42.98,39.38,26.00,,
"USW00025381","2012-12-31",44.96,31.10,33.00,,
"USW00025381","2013-01-01",47.30,40.64,105.00,,
"USW00025381","2013-01-02",42.80,35.96,432.00,,
"USW00025381","2013-01-03",45.32,36.32,203.00,,
"USW00025381","2013-01-04",47.30,35.96,7.00,,
"USW00025381","2013-01-05",46.58,37.76,45.00,,
"USW00025381","2013-01-06",42.26,35.60,40.00,,
"USW00025381","2013-01-07",42.08,32.54,17.00,,
"USW00025381","2013-01-08",38.12,30.92,60.00,,
"USW00025381","2013-01-09",36.32,29.84,0.00,,
"USW00025381","2013-01-10",33.26,21.56,0.00,,
"USW00025381","2013-01-11",35.24,30.74,0.00,,
"USW00025381","2013-01-12",38.12,29.66,0.00,,
"USW00025381","2013-01-13",39.92,34.16,15.00,,
"USW00025381","2013-01-14",45.32,36.14,0.00,,
"USW00025381","2013-01-15",43.70,39.56,11.00,,
"USW00025381","2013-01-16",44.42,37.04,73.00,,
"USW00025381","2013-01-17",43.88,41.18,128.00,,
"USW00025381","2013-01-18",41.36,32.00,0.00,,
"USW00025381","2013-01-19",45.32,33.62,0.00,,
"USW00025381","2013-01-20",44.60,33.08,11.00,,
"USW00025381","2013-01-21",43.16,31.28,0.00,,
"USW00025381","2013-01-22",47.84,31.28,176.00,,
"USW00025381","2013-01-23",43.88,40.28,68.00,,
"USW00025381","2013-01-24",44.60,38.84,107.00,,
"USW00025381","2013-01-25",44.42,38.66,159.00,,
"USW00025381","2013-01-26",41.72,35.96,22.00,,
"USW00025381","2013-01-27",39.20,32.54,0.00,,
"USW00025381","2013-01-28",36.14,31.10,26.00,,
"USW00025381","2013-01-29",42.98,30.56,69.00,,
"USW00025381","2013-01-30",43.16,38.30,130.00,,
"USW00025381","2013-01-31",44.78,41.54,84.00,,
"USW00025381","2013-02-01",45.50,42.98,148.00,,
"USW00025381","2013-02-02",44.78,39.56,133.00,,
"USW00025381","2013-02-03",43.16,32.18,238.00,,
"USW00025381","2013-02-04",41.18,31.46,9.00,,
"USW00025381","2013-02-05",43.70,38.48,23.00,,
"USW00025381","2013-02-06",43.16,31.82,33.00,,
"USW00025381","2013-02-07",39.92,30.38,25.00,,
"USW00025381","2013-02-08",43.88,37.94,194.00,,
"USW00025381","2013-02-09",43.88,38.12,28.00,,
"USW00025381","2013-02-10",45.14,38.12,115.00,,
"USW00025381","2013-02-11",41.72,39.20,209.00,,
"USW00025381","2013-02-12",43.34,30.74,179.00,,
"USW00025381","2013-02-13",40.82,30.74,2.00,,
"USW00025381","2013-02-14",45.68,37.58,178.00,,
"USW00025381","2013-02-15",45.68,40.10,413.00,,
"USW00025381","2013-02-16",43.52,33.44,0.00,,
"USW00025381","2013-02-17",39.20,33.26,191.00,,
"USW00025381","2013-02-18",40.82,33.08,192.00,,
"USW00025381","2013-02-19",41.54,31.10,21.00,,
"USW00025381","2013-02-20",42.80,35.60,145.00,,
"USW00025381","2013-02-21",41.18,34.52,277.00,,
"USW00025381","2013-02-22",42.98,36.86,57.00,,
"USW00025381","2013-02-23",40.28,29.30,187.00,,
"USW00025381","2013-02-24",42.08,29.66,0.00,,
"USW00025381","2013-02-25",41.18,28.22,8.00,,
"USW00025381","2013-02-26",41.36,35.78,132.00,,
"USW00025381","2013-02-27",43.16,34.88,166.00,,
"USW00025381","2013-02-28",44.42,36.50,151.00,,
"USW00025381","2013-03-01",43.88,34.70,99.00,,
"USW00025381","2013-03-02",41.90,31.28,153.00,,
"USW00025381","2013-03-03",39.02,29.66,0.00,,
"USW00025381","2013-03-04",45.50,30.56,0.00,,
"USW00025381","2013-03-05",47.12,29.30,0.00,,
"USW00025381","2013-03-06",42.80,23.36,0.00,,
"USW00025381","2013-03-07",43.70,24.44,0.00,,
"USW00025381","2013-03-08",41.72,25.52,8.00,,
"USW00025381","2013-03-09",41.90,33.98,178.00,,
"USW00025381","2013-03-10",41.00,30.20,0.00,,
"USW00025381","2013-03-11",40.82,33.44,31.00,,
"USW00025381","2013-03-12",41.18,32.00,11.00,,
"USW00025381","2013-03-13",41.72,30.56,7.00,,
"USW00025381","2013-03-14",39.74,35.60,37.00,,
"USW00025381","2013-03-15",43.70,29.84,266.00,,
"USW00025381","2013-03-16",41.54,26.42,0.00,,
"USW00025381","2013-03-17",41.00,29.66,0.00,,
"USW00025381","2013-03-18",42.08,29.48,15.00,,
"USW00025381","2013-03-19",39.92,32.18,81.00,,
"USW00025381","2013-03-20",39.20,26.96,0.00,,
"USW00025381","2013-03-21",40.46,26.96,7.00,,
"USW00025381","2013-03-22",39.56,28.58,0.00,,
"USW00025381","2013-03-23",43.52,35.24,0.00,,
"USW00025381","2013-03-24",48.92,40.28,10.00,,
"USW00025381","2013-03-25",43.52,39.20,154.00,,
"USW00025381","2013-03-26",45.14,32.90,0.00,,
"USW00025381","2013-03-27",44.06,32.00,0.00,,
"USW00025381","2013-03-28",46.22,32.00,0.00,,
"USW00025381","2013-03-29",47.66,29.30,0.00,,
"USW00025381","2013-03-30",43.34,35.78,3.00,,
"USW00025381","2013-03-31",51.44,37.76,0.00,,
"USW00025381","2013-04-01",48.56,32.00,0.00,,
"USW00025381","2013-04-02",46.04,29.66,0.00,,
"USW00025381","2013-04-03",48.02,33.44,0.00,,
"USW00025381","2013-04-04",49.28,41.00,0.00,,
"USW00025381","2013-04-05",47.84,40.82,35.00,,
"USW00025381","2013-04-06",48.92,42.62,6.00,,
"USW00025381","2013-04-07",52.88,35.42,0.00,,
"USW00025381","2013-04-08",47.84,33.08,58.00,,
"USW00025381","2013-04-09",45.68,39.56,273.00,,
"USW00025381","2013-04-10",43.34,32.54,0.00,,
"USW00025381","2013-04-11",41.90,30.20,67.00,,
"USW00025381","2013-04-12",41.18,33.62,283.00,,
"USW00025381","2013-04-13",49.10,32.72,0.00,,
"USW00025381","2013-04-14",50.72,36.86,5.00,,
"USW00025381","2013-04-15",54.14,36.86,0.00,,
"USW00025381","2013-04-16",47.12,34.34,58.00,,
"USW00025381","2013-04-17",45.14,39.92,240.00,,
"USW00025381","2013-04-18",45.50,40.28,201.00,,
"USW00025381","2013-04-19",46.76,33.98,0.00,,
"USW00025381","2013-04-20",48.20,32.00,0.00,,
"USW00025381","2013-04-21",50.18,30.20,0.00,,
"USW00025381","2013-04-22",52.16,30.38,0.00,,
"USW00025381","2013-04-23",56.66,38.30,0.00,,
"USW00025381","2013-04-24",52.16,44.42,4.00,,
"USW00025381","2013-04-25",46.04,43.16,233.00,,
"USW00025381","2013-04-26",49.10,37.94,149.00,,
"USW00025381","2013-04-27",45.32,36.32,2.00,,
"USW00025381","2013-04-28",43.34,36.32,43.00,,
"USW00025381","2013-04-29",44.42,35.06,0.00,,
"USW00025381","2013-04-30",44.96,31.64,0.00,,
"USW00025381","2013-05-01",43.52,38.12,436.00,,
"USW00025381","2013-05-02",48.38,43.34,102.00,,
"USW00025381","2013-05-03",53.06,42.62,0.00,,
"USW00025381","2013-05-04",60.08,43.34,0.00,,
"USW00025381","2013-05-05",63.14,42.08,0.00,,
"USW00025381","2013-05-06",57.74,47.30,0.00,,
"USW00025381","2013-05-07",62.78,45.50,0.00,,
"USW00025381","2013-05-08",64.94,41.18,0.00,,
"USW00025381","2013-05-09",53.78,40.46,0.00,,
"USW00025381","2013-05-10",53.96,43.52,0.00,,
"USW00025381","2013-05-11",51.62,46.94,252.00,,
"USW00025381","2013-05-12",49.64,47.48,182.00,,
"USW00025381","2013-05-13",48.74,44.60,118.00,,
"USW00025381","2013-05-14",49.10,44.78,116.00,,
"USW00025381","2013-05-15",49.10,44.78,53.00,,
"USW00025381","2013-05-16",55.76,43.34,7.00,,
"USW00025381","2013-05-17",51.98,46.22,57.00,,
"USW00025381","2013-05-18",53.06,38.12,139.00,,
"USW00025381","2013-05-19",47.84,38.66,9.00,,
"USW00025381","2013-05-20",50.72,39.20,0.00,,
"USW00025381","2013-05-21",61.52,45.32,0.00,,
"USW00025381","2013-05-22",64.22,50.36,0.00,,
"USW00025381","2013-05-23",66.02,50.72,0.00,,
"USW00025381","2013-05-24",51.62,46.76,0.00,,
"USW00025381","2013-05-25",60.44,46.94,2.00,,
"USW00025381","2013-05-26",58.64,44.60,0.00,,
"USW00025381","2013-05-27",66.38,43.70,4.00,,
"USW00025381","2013-05-28",60.80,49.82,52.00,,
"USW00025381","2013-05-29",57.92,46.94,11.00,,
"USW00025381","2013-05-30",54.32,46.58,120.00,,
"USW00025381","2013-05-31",54.68,48.02,83.00,,
"USW00025381","2013-06-01",57.74,48.38,31.00,,
"USW00025381","2013-06-02",58.64,45.86,0.00,,
"USW00025381","2013-06-03",56.30,43.16,0.00,,
"USW00025381","2013-06-04",52.52,47.84,68.00,,
"USW00025381","2013-06-05",56.84,47.12,0.00,,
"USW00025381","2013-06-06",49.82,46.76,348.00,,
"USW00025381","2013-06-07",53.42,47.66,57.00,,
"USW00025381","2013-06-08",54.68,48.20,121.00,,
"USW00025381","2013-06-09",56.48,47.48,0.00,,
"USW00025381","2013-06-10",69.08,44.96,0.00,,
"USW00025381","2013-06-11",71.78,50.54,3.00,,
"USW00025381","2013-06-12",55.76,48.92,0.00,,
"USW00025381","2013-06-13",54.14,48.38,0.00,,
"USW00025381","2013-06-14",61.34,46.76,0.00,,
"USW00025381","2013-06-15",75.20,44.24,0.00,,
"USW00025381","2013-06-18",61.52,51.26,0.00,,
"USW00025381","2013-06-19",68.54,52.16,0.00,,
"USW00025381","2013-06-20",63.68,55.94,5.00,,
"USW00025381","2013-06-21",58.64,52.70,72.00,,
"USW00025381","2013-06-22",60.08,49.64,18.00,,
"USW00025381","2013-06-23",69.26,47.12,0.00,,
"USW00025381","2013-06-24",71.06,55.22,109.00,,
"USW00025381","2013-06-25",58.82,53.06,27.00,,
"USW00025381","2013-06-26",66.92,50.18,0.00,,
"USW00025381","2013-06-27",66.92,50.90,30.00,,
"USW00025381","2013-06-28",64.76,55.40,0.00,,
"USW00025381","2013-06-29",63.14,55.40,112.00,,
"USW00025381","2013-06-30",66.56,55.04,0.00,,
"USW00025381","2013-07-01",64.58,55.04,0.00,,
"USW00025381","2013-07-02",64.40,51.08,0.00,,
"USW00025381","2013-07-03",63.32,53.06,0.00,,
"USW00025381","2013-07-04",64.94,51.80,0.00,,
"USW00025381","2013-07-05",66.20,55.04,0.00,,
"USW00025381","2013-07-06",67.10,54.32,0.00,,
"USW00025381","2013-07-07",67.82,53.42,0.00,,
"USW00025381","2013-07-08",59.54,51.98,67.00,,
"USW00025381","2013-07-09",59.72,50.36,112.00,,
"USW00025381","2013-07-10",55.40,48.02,269.00,,
"USW00025381","2013-07-11",62.42,50.18,0.00,,
"USW00025381","2013-07-12",55.22,52.52,35.00,,
"USW00025381","2013-07-13",56.12,51.98,0.00,,
"USW00025381","2013-07-14",65.84,48.56,0.00,,
"USW00025381","2013-07-15",71.42,52.88,0.00,,
"USW00025381","2013-07-16",81.32,51.44,0.00,,
"USW00025381","2013-07-17",76.28,53.24,0.00,,
"USW00025381","2013-07-18",61.88,53.96,4.00,,
"USW00025381","2013-07-19",63.32,55.22,0.00,,
"USW00025381","2013-07-20",63.32,54.50,0.00,,
"USW00025381","2013-07-21",62.24,54.86,0.00,,
"USW00025381","2013-07-22",61.70,53.24,55.00,,
"USW00025381","2013-07-23",57.20,54.50,247.00,,
"USW00025381","2013-07-24",60.08,53.60,56.00,,
"USW00025381","2013-07-25",61.88,52.70,8.00,,
"USW00025381","2013-07-26",65.12,52.70,74.00,,
"USW00025381","2013-07-27",67.82,52.34,0.00,,
"USW00025381","2013-07-28",74.84,59.18,0.00,,
"USW00025381","2013-07-29",82.40,54.50,0.00,,
"USW00025381","2013-07-30",76.28,56.84,0.00,,
"USW00025381","2013-07-31",73.22,54.68,0.00,,
"USW00025381","2013-08-01",71.60,53.96,0.00,,
"USW00025381","2013-08-02",63.14,53.42,0.00,,
"USW00025381","2013-08-03",61.52,52.34,0.00,,
"USW00025381","2013-08-04",63.32,51.80,0.00,,
"USW00025381","2013-08-05",64.04,54.14,0.00,,
"USW00025381","2013-08-06",69.62,55.94,0.00,,
"USW00025381","2013-08-07",64.04,52.16,0.00,,
"USW00025381","2013-08-08",59.54,54.86,105.00,,
"USW00025381","2013-08-09",69.26,54.32,0.00,,
"USW00025381","2013-08-10",73.76,54.14,0.00,,
"USW00025381","2013-08-11",68.90,51.80,0.00,,
"USW00025381","2013-08-12",59.00,51.62,0.00,,
"USW00025381","2013-08-13",63.86,55.22,0.00,,
"USW00025381","2013-08-14",69.98,54.32,12.00,,
"USW00025381","2013-08-15",64.04,57.74,61.00,,
"USW00025381","2013-08-16",65.66,57.20,29.00,,
"USW00025381","2013-08-17",60.26,54.32,164.00,,
"USW00025381","2013-08-18",58.64,53.60,175.00,,
"USW00025381","2013-08-19",61.88,52.34,43.00,,
"USW00025381","2013-08-20",61.88,51.26,0.00,,
"USW00025381","2013-08-21",62.24,49.64,106.00,,
"USW00025381","2013-08-22",62.78,51.98,3.00,,
"USW00025381","2013-08-23",66.20,51.08,0.00,,
"USW00025381","2013-08-24",58.82,54.50,61.00,,
"USW00025381","2013-08-25",59.72,55.04,138.00,,
"USW00025381","2013-08-26",68.00,55.22,11.00,,
"USW00025381","2013-08-27",61.34,52.52,17.00,,
"USW00025381","2013-08-28",67.64,49.64,0.00,,
"USW00025381","2013-08-29",67.28,51.62,22.00,,
"USW00025381","2013-08-30",64.94,57.92,234.00,,
"USW00025381","2013-08-31",64.58,54.50,2.00,,
"USW00025381","2013-09-01",67.64,50.54,0.00,,
"USW00025381","2013-09-02",66.92,49.46,0.00,,
"USW00025381","2013-09-03",70.34,50.72,0.00,,
"USW00025381","2013-09-04",59.00,51.62,8.00,,
"USW00025381","2013-09-05",63.68,56.66,11.00,,
"USW00025381","2013-09-06",72.86,54.68,0.00,,
"USW00025381","2013-09-07",69.26,51.98,0.00,,
"USW00025381","2013-09-08",64.04,53.06,113.00,,
"USW00025381","2013-09-09",62.42,48.92,0.00,,
"USW00025381","2013-09-10",66.38,44.60,0.00,,
"USW00025381","2013-09-11",76.46,50.54,0.00,,
"USW00025381","2013-09-12",66.74,55.04,0.00,,
"USW00025381","2013-09-13",67.46,53.06,0.00,,
"USW00025381","2013-09-14",69.08,48.56,0.00,,
"USW00025381","2013-09-15",66.56,45.32,12.00,,
"USW00025381","2013-09-16",58.28,51.98,27.00,,
"USW00025381","2013-09-17",58.82,51.08,52.00,,
"USW00025381","2013-09-18",59.00,48.56,73.00,,
"USW00025381","2013-09-19",58.82,52.16,486.00,,
"USW00025381","2013-09-20",58.28,51.98,32.00,,
"USW00025381","2013-09-21",55.40,48.56,120.00,,
"USW00025381","2013-09-22",53.24,47.84,328.00,,
"USW00025381","2013-09-23",52.16,47.48,182.00,,
"USW00025381","2013-09-24",54.50,39.74,6.00,,
"USW00025381","2013-09-25",56.30,37.94,0.00,,
"USW00025381","2013-09-26",53.42,45.68,224.00,,
"USW00025381","2013-09-27",53.24,46.76,241.00,,
"USW00025381","2013-09-28",52.16,46.22,146.00,,
"USW00025381","2013-09-29",50.72,42.80,111.00,,
"USW00025381","2013-09-30",49.82,39.20,9.00,,
"USW00025381","2013-10-01",50.00,44.60,60.00,,
"USW00025381","2013-10-02",54.32,36.86,0.00,,
"USW00025381","2013-10-03",51.08,37.22,209.00,,
"USW00025381","2013-10-04",55.40,49.10,153.00,,
"USW00025381","2013-10-05",52.88,47.66,185.00,,
"USW00025381","2013-10-06",53.60,48.38,708.00,,
"USW00025381","2013-10-07",54.32,48.92,59.00,,
"USW00025381","2013-10-08",54.32,40.82,3.00,,
"USW00025381","2013-10-09",53.42,44.06,217.00,,
"USW00025381","2013-10-10",52.88,41.90,0.00,,
"USW00025381","2013-10-11",49.46,41.00,55.00,,
"USW00025381","2013-10-12",48.74,36.86,0.00,,
"USW00025381","2013-10-13",49.28,46.04,103.00,,
"USW00025381","2013-10-14",53.24,49.10,150.00,,
"USW00025381","2013-10-15",51.62,44.24,0.00,,
"USW00025381","2013-10-16",52.34,39.20,0.00,,
"USW00025381","2013-10-17",52.16,34.70,0.00,,
"USW00025381","2013-10-18",48.56,40.46,0.00,,
"USW00025381","2013-10-19",49.10,41.36,37.00,,
"USW00025381","2013-10-20",52.88,48.74,13.00,,
"USW00025381","2013-10-21",53.78,49.64,5.00,,
"USW00025381","2013-10-22",53.06,47.66,3.00,,
"USW00025381","2013-10-23",51.62,44.24,3.00,,
"USW00025381","2013-10-24",50.18,46.58,0.00,,
"USW00025381","2013-10-25",49.10,46.76,23.00,,
"USW00025381","2013-10-26",53.96,45.32,64.00,,
"USW00025381","2013-10-27",52.52,38.66,0.00,,
"USW00025381","2013-10-28",54.50,33.44,0.00,,
"USW00025381","2013-10-29",48.20,38.66,3.00,,
"USW00025381","2013-10-30",51.26,45.68,190.00,,
"USW00025381","2013-10-31",51.08,40.28,58.00,,
"USW00025381","2013-11-01",44.42,34.70,72.00,,
"USW00025381","2013-11-02",44.78,30.74,0.00,,
"USW00025381","2013-11-03",43.88,27.86,0.00,,
"USW00025381","2013-11-04",44.78,35.42,214.00,,
"USW00025381","2013-11-05",46.58,38.30,283.00,,
"USW00025381","2013-11-06",50.72,43.52,6.00,,
"USW00025381","2013-11-07",45.32,33.08,0.00,,
"USW00025381","2013-11-08",43.88,38.84,161.00,,
"USW00025381","2013-11-09",44.78,30.74,25.00,,
"USW00025381","2013-11-10",41.54,28.58,0.00,,
"USW00025381","2013-11-11",47.30,23.54,56.00,,
"USW00025381","2013-11-12",47.84,41.36,258.00,,
"USW00025381","2013-11-13",48.56,34.70,15.00,,
"USW00025381","2013-11-14",45.32,35.60,163.00,,
"USW00025381","2013-11-15",47.12,32.00,14.00,,
"USW00025381","2013-11-16",36.50,28.22,27.00,,
"USW00025381","2013-11-17",32.54,27.86,8.00,,
"USW00025381","2013-11-18",28.40,22.64,0.00,,
"USW00025381","2013-11-19",28.76,17.06,68.00,,
"USW00025381","2013-11-20",41.54,25.52,11.00,,
"USW00025381","2013-11-21",46.40,39.38,274.00,,
"USW00025381","2013-11-22",46.40,39.38,298.00,,
"USW00025381","2013-11-23",44.42,40.64,274.00,,
"USW00025381","2013-11-24",48.74,40.82,44.00,,
"USW00025381","2013-11-25",52.16,39.74,177.00,,
"USW00025381","2013-11-26",49.82,43.70,66.00,,
"USW00025381","2013-11-27",51.44,45.14,458.00,,
"USW00025381","2013-11-28",45.68,37.40,37.00,,
"USW00025381","2013-11-29",46.58,40.64,269.00,,
"USW00025381","2013-11-30",40.82,34.34,146.00,,
"USW00025381","2013-12-01",37.58,26.42,6.00,,
"USW00025381","2013-12-02",33.62,24.44,0.00,,
"USW00025381","2013-12-03",36.32,23.18,0.00,,
"USW00025381","2013-12-04",33.80,21.20,0.00,,
"USW00025381","2013-12-05",37.76,19.58,0.00,,
"USW00025381","2013-12-06",33.26,15.98,3.00,,
"USW00025381","2013-12-07",32.36,16.34,2.00,,
"USW00025381","2013-12-08",33.44,29.84,9.00,,
"USW00025381","2013-12-09",38.84,33.44,11.00,,
"USW00025381","2013-12-10",44.42,34.88,266.00,,
"USW00025381","2013-12-11",44.78,41.54,564.00,,